• Em Portugal
  • Lista de países
  • Para 7 dias
  • Temperatura da água
  • Mapas de satélite
  • Mapa do tempo
  • Widgets de tempo
  • user-avatar
    Iniciar Sessão

    Previsão horária em Skowierzyn

    Hoje, 19 Julho, Quinta-feira

    Tempo Temperatura Precipitação Vento Pressão Humidade
    00:00 +20°C° 0,8 mm 3 m/s 742 mmHg 96%
    01:00 +20°C° 0,8 mm 3 m/s 743 mmHg 97%
    02:00 +20°C° 0,3 mm 4 m/s 743 mmHg 97%
    03:00 +20°C° 0,3 mm 4 m/s 743 mmHg 97%
    04:00 +20°C° 0,3 mm 4 m/s 743 mmHg 97%
    05:00 +20°C° 0,3 mm 4 m/s 743 mmHg 96%
    06:00 +21°C° 0,3 mm 4 m/s 744 mmHg 95%
    07:00 +21°C° 0,3 mm 4 m/s 744 mmHg 94%
    08:00 +21°C° 0,2 mm 4 m/s 744 mmHg 93%
    09:00 +21°C° 0,2 mm 4 m/s 744 mmHg 91%
    10:00 +22°C° 0,2 mm 4 m/s 744 mmHg 89%
    11:00 +23°C° 0,2 mm 5 m/s 744 mmHg 85%
    12:00 +23°C° 0,2 mm 5 m/s 744 mmHg 82%
    13:00 +25°C° 0,2 mm 5 m/s 744 mmHg 78%
    14:00 +26°C° 0,3 mm 5 m/s 744 mmHg 77%
    15:00 +26°C° 0,3 mm 5 m/s 744 mmHg 76%
    16:00 +26°C° 0,3 mm 5 m/s 744 mmHg 76%
    17:00 +25°C° 0,6 mm 4 m/s 744 mmHg 80%
    18:00 +23°C° 0,6 mm 4 m/s 744 mmHg 84%
    19:00 +22°C° 0,6 mm 4 m/s 744 mmHg 89%
    20:00 +21°C° 0,3 mm 4 m/s 744 mmHg 90%
    21:00 +20°C° 0,3 mm 4 m/s 744 mmHg 92%
    22:00 +19°C° 0,3 mm 4 m/s 745 mmHg 94%
    23:00 +19°C° 0 mm 3 m/s 745 mmHg 94%

    Amanhã, 20 Julho, Sexta-feira

    Tempo Temperatura Precipitação Vento Pressão Humidade
    00:00 +19°C° 0 mm 3 m/s 745 mmHg 95%
    01:00 +19°C° 0 mm 3 m/s 745 mmHg 95%
    02:00 +19°C° 0,1 mm 3 m/s 745 mmHg 96%
    03:00 +19°C° 0,1 mm 3 m/s 745 mmHg 96%
    04:00 +19°C° 0,1 mm 3 m/s 745 mmHg 96%
    05:00 +19°C° 0,1 mm 3 m/s 745 mmHg 95%
    06:00 +19°C° 0,1 mm 4 m/s 745 mmHg 94%
    07:00 +19°C° 0,1 mm 4 m/s 746 mmHg 93%
    08:00 +20°C° 0,1 mm 4 m/s 746 mmHg 90%
    09:00 +21°C° 0,1 mm 4 m/s 746 mmHg 87%
    10:00 +21°C° 0,1 mm 4 m/s 746 mmHg 84%
    11:00 +23°C° 0,1 mm 5 m/s 746 mmHg 77%
    12:00 +25°C° 0,1 mm 5 m/s 746 mmHg 71%
    13:00 +26°C° 0,1 mm 5 m/s 746 mmHg 64%
    14:00 +26°C° 0 mm 5 m/s 745 mmHg 63%
    15:00 +26°C° 0 mm 5 m/s 745 mmHg 62%
    16:00 +26°C° 0 mm 5 m/s 745 mmHg 61%
    17:00 +25°C° 0 mm 5 m/s 745 mmHg 66%
    18:00 +23°C° 0 mm 4 m/s 745 mmHg 71%
    19:00 +22°C° 0 mm 3 m/s 745 mmHg 77%
    20:00 +21°C° 0 mm 3 m/s 745 mmHg 80%
    21:00 +20°C° 0 mm 3 m/s 746 mmHg 83%
    22:00 +19°C° 0 mm 3 m/s 746 mmHg 87%
    23:00 +19°C° 0 mm 3 m/s 746 mmHg 89%

    Depois de amanhã, 21 Julho, Sábado

    Tempo Temperatura Precipitação Vento Pressão Humidade
    00:00 +18°C° 0 mm 3 m/s 746 mmHg 91%
    01:00 +18°C° 0 mm 3 m/s 746 mmHg 93%
    02:00 +17°C° 0 mm 3 m/s 746 mmHg 94%
    03:00 +17°C° 0 mm 2 m/s 746 mmHg 95%
    04:00 +16°C° 0 mm 2 m/s 746 mmHg 96%
    05:00 +18°C° 0 mm 2 m/s 746 mmHg 90%
    06:00 +19°C° 0 mm 2 m/s 746 mmHg 84%
    07:00 +21°C° 0 mm 2 m/s 746 mmHg 78%
    08:00 +23°C° 0 mm 2 m/s 746 mmHg 72%
    09:00 +24°C° 0 mm 2 m/s 746 mmHg 66%
    10:00 +25°C° 0 mm 2 m/s 746 mmHg 60%
    11:00 +26°C° 0,1 mm 3 m/s 746 mmHg 58%
    12:00 +26°C° 0,1 mm 3 m/s 746 mmHg 56%
    13:00 +27°C° 0,1 mm 3 m/s 746 mmHg 54%
    14:00 +27°C° 0 mm 3 m/s 746 mmHg 54%
    15:00 +27°C° 0 mm 3 m/s 745 mmHg 54%
    16:00 +27°C° 0 mm 3 m/s 745 mmHg 54%
    17:00 +26°C° 0 mm 2 m/s 745 mmHg 59%
    18:00 +24°C° 0 mm 2 m/s 745 mmHg 64%
    19:00 +23°C° 0 mm 1 m/s 745 mmHg 70%
    20:00 +22°C° 0 mm 1 m/s 745 mmHg 73%
    21:00 +21°C° 0 mm 1 m/s 745 mmHg 75%
    22:00 +19°C° 0 mm 1 m/s 745 mmHg 78%
    23:00 +19°C° 0 mm 1 m/s 745 mmHg 80%

    22 Julho, Domingo

    Tempo Temperatura Precipitação Vento Pressão Humidade
    00:00 +18°C° 0 mm 1 m/s 745 mmHg 81%
    01:00 +16°C° 0 mm 0 m/s 745 mmHg 83%
    02:00 +16°C° 0 mm 0 m/s 745 mmHg 84%
    03:00 +15°C° 0 mm 0 m/s 745 mmHg 85%
    04:00 +15°C° 0 mm 0 m/s 745 mmHg 86%
    05:00 +17°C° 0 mm 0 m/s 745 mmHg 80%
    06:00 +19°C° 0 mm 0 m/s 745 mmHg 75%
    07:00 +23°C° 0 mm 1 m/s 745 mmHg 69%
    08:00 +24°C° 0 mm 1 m/s 745 mmHg 63%
    09:00 +25°C° 0 mm 1 m/s 745 mmHg 58%
    10:00 +27°C° 0 mm 1 m/s 745 mmHg 52%
    11:00 +27°C° 0 mm 1 m/s 745 mmHg 50%
    12:00 +27°C° 0 mm 2 m/s 744 mmHg 47%
    13:00 +28°C° 0 mm 2 m/s 744 mmHg 45%
    14:00 +28°C° 0 mm 2 m/s 744 mmHg 45%
    15:00 +28°C° 0 mm 2 m/s 744 mmHg 46%
    16:00 +28°C° 0 mm 2 m/s 744 mmHg 46%
    17:00 +26°C° 0 mm 2 m/s 744 mmHg 53%
    18:00 +25°C° 0 mm 2 m/s 744 mmHg 59%
    19:00 +23°C° 0 mm 2 m/s 744 mmHg 65%
    20:00 +21°C° 0 mm 2 m/s 744 mmHg 68%
    21:00 +21°C° 0 mm 2 m/s 744 mmHg 70%
    22:00 +20°C° 0 mm 2 m/s 744 mmHg 73%
    23:00 +19°C° 0 mm 2 m/s 744 mmHg 76%

    23 Julho, Segunda-feira

    Tempo Temperatura Precipitação Vento Pressão Humidade
    00:00 +18°C° 0 mm 2 m/s 744 mmHg 79%
    01:00 +18°C° 0 mm 2 m/s 744 mmHg 83%
    02:00 +18°C° 0 mm 2 m/s 745 mmHg 85%
    03:00 +17°C° 0 mm 2 m/s 745 mmHg 87%
    04:00 +17°C° 0 mm 2 m/s 745 mmHg 89%
    05:00 +18°C° 0 mm 2 m/s 745 mmHg 86%
    06:00 +20°C° 0 mm 3 m/s 745 mmHg 83%
    07:00 +21°C° 0 mm 3 m/s 746 mmHg 80%
    08:00 +22°C° 0,2 mm 3 m/s 746 mmHg 76%
    09:00 +24°C° 0,2 mm 3 m/s 746 mmHg 73%
    10:00 +25°C° 0,2 mm 4 m/s 746 mmHg 69%
    11:00 +26°C° 0,2 mm 4 m/s 746 mmHg 65%
    12:00 +27°C° 0,2 mm 4 m/s 745 mmHg 61%
    13:00 +27°C° 0,2 mm 4 m/s 745 mmHg 56%
    14:00 +27°C° 0,3 mm 4 m/s 745 mmHg 57%
    15:00 +27°C° 0,3 mm 4 m/s 745 mmHg 57%
    16:00 +27°C° 0,3 mm 4 m/s 745 mmHg 57%
    17:00 +26°C° 0,1 mm 3 m/s 746 mmHg 62%
    18:00 +25°C° 0,1 mm 3 m/s 746 mmHg 67%
    19:00 +23°C° 0,1 mm 2 m/s 746 mmHg 72%
    20:00 +21°C° 0 mm 2 m/s 746 mmHg 74%
    21:00 +20°C° 0 mm 2 m/s 747 mmHg 75%
    22:00 +19°C° 0 mm 2 m/s 747 mmHg 77%
    23:00 +19°C° 0 mm 2 m/s 747 mmHg 79%

    24 Julho, Terça-feira

    Tempo Temperatura Precipitação Vento Pressão Humidade
    00:00 +18°C° 0 mm 2 m/s 747 mmHg 82%
    01:00 +18°C° 0 mm 2 m/s 747 mmHg 84%
    02:00 +17°C° 0 mm 2 m/s 747 mmHg 86%
    03:00 +17°C° 0 mm 2 m/s 747 mmHg 88%
    04:00 +17°C° 0 mm 2 m/s 747 mmHg 90%
    05:00 +18°C° 0 mm 2 m/s 748 mmHg 85%
    06:00 +20°C° 0 mm 2 m/s 748 mmHg 81%
    07:00 +21°C° 0 mm 2 m/s 748 mmHg 76%
    08:00 +24°C° 0,1 mm 2 m/s 748 mmHg 70%
    09:00 +25°C° 0,1 mm 2 m/s 748 mmHg 63%
    10:00 +27°C° 0,1 mm 2 m/s 748 mmHg 57%
    11:00 +28°C° 0,1 mm 2 m/s 748 mmHg 55%
    12:00 +28°C° 0,1 mm 2 m/s 748 mmHg 52%
    13:00 +29°C° 0,1 mm 2 m/s 748 mmHg 50%
    14:00 +29°C° 0,3 mm 2 m/s 748 mmHg 52%
    15:00 +28°C° 0,3 mm 3 m/s 748 mmHg 54%
    16:00 +28°C° 0,3 mm 3 m/s 748 mmHg 55%
    17:00 +27°C° 0,1 mm 2 m/s 748 mmHg 62%
    18:00 +25°C° 0,1 mm 2 m/s 748 mmHg 68%
    19:00 +24°C° 0,1 mm 2 m/s 748 mmHg 75%
    20:00 +23°C° 0 mm 1 m/s 748 mmHg 77%
    21:00 +22°C° 0 mm 1 m/s 749 mmHg 79%
    22:00 +21°C° 0 mm 1 m/s 749 mmHg 81%
    23:00 +20°C° 0 mm 1 m/s 749 mmHg 82%
    Mostrar mais